Location: Balsareny
(41.8670°N, 1.8830°E)
Time: 11:52:01
(UTC+01:00)

Envisat - Pass Details

Date: 10 December 2021
Orbit: 764 x 766 km, 98.2° (Epoch: 16 January)

Event Time Altitude Azimuth Distance (km) Brightness Sun altitude
Rises 06:08:55 0° 10° (N) 3,240 6.2 -21.6°
Reaches altitude 10° 06:11:14 10° 8° (N) 2,310 5.4 -21.2°
Maximum altitude 06:16:17 68° 286° (WNW) 822 2.9 -20.3°
Drops below altitude 10° 06:21:18 10° 204° (SSW) 2,293 5.4 -19.4°
Sets 06:23:36 0° 202° (SSW) 3,214 6.2 -18.9°
